Regional Weather Roundup
Issued by NWS

Home | Current Version | Previous Version | Text Only | Print | Product List | Glossary On
Versions: 1 2 3 4 5 6 7 8 9 10 11 12 13 14 15 16 17 18 19 20 21 22 23 24 25 26 27 28 29 30 31 32 33 34 35 36 37 38 39 40 41 42 43 44 45 46 47 48 49 50
000
ASCA42 TJSJ 240710
RWRPR
PUERTO RICO/U.S. VIRGIN ISLANDS HOURLY WEATHER ROUNDUP
NATIONAL WEATHER SERVICE SAN JUAN PR
300 AM AST THU APR 24 2014

PRZ001-004-240800-
PUERTO RICO

CITY           SKY/WX    TMP DP  RH WIND       PRES   REMARKS
SAN JUAN LMM   CLEAR     81  72  74 S3        29.96F
PONCE          PTCLDY    77  72  83 CALM      29.95F
AGUADILLA      PTCLDY    77  72  83 CALM      29.98F
CEIBA          PTCLDY    73  72  94 CALM      29.99F
$$

PRZ006-007-240800-
U.S. VIRGIN ISLANDS

CITY           SKY/WX    TMP DP  RH WIND       PRES   REMARKS
CHARLOTTE AMA  PTCLDY    77  75  94 CALM      29.97F
CHRISTIANSTED  CLEAR    N/A N/A N/A N5        29.98F
$$

HOURLY WEATHER ROUNDUP FOR THE NEWS MEDIA

CITY           SKY/WX    TMP DP  RH WIND       PRES   REMARKS
ORLANDO        CLEAR     69  64  84 W5        29.94F
NEW YORK       CLEAR     45  28  51 NW22      29.84F
NEWARK         PTCLDY    43  28  55 NW15      29.86S
CHICAGO        LGT RAIN  39  30  70 NE10      30.07F WCI  32
HARTFORD       MOCLDY    45  28  51 NW12G23   29.60S
BOSTON         MOCLDY    46  27  47 NW18G35   29.61S
DALLAS         MOCLDY    72  63  73 S14G24    29.76F
PHILADELPHIA   CLEAR     45  25  45 W9        29.94S
LOS ANGELES    CLEAR     61  51  70 CALM      29.95S
WASHINGTON DC  CLEAR     42  27  55 SW6       30.02F



USA.gov is the U.S. government's official web portal to all federal, state and local government web resources and services.